IT9IRS-1 Weather Reports


Display with metric or nautical units.
time (UTC)temp
F
wind
direction
speed
MPH
gust
MPH
rain 1hr
in
rain 24hr
in
rain mn
in
humidity
%
barometer
mb
20260905195004 80 347 2.0 4.0 0.00 0.00 0.00 70 1015.3
20260905194503 80 351 2.0 4.0 0.00 0.00 0.00 70 1015.3
20260905194215 80 347 2.0 3.0 0.00 0.00 0.00 69 1015.3
20260905193503 81 343 2.0 3.0 0.00 0.00 0.00 68 1015.3
20260905193216 81 343 1.0 3.0 0.00 0.00 0.00 68 1015.3
20260905192714 81 3 1.0 2.0 0.00 0.00 0.00 68 1015.3
20260905192003 81 351 1.0 2.0 0.00 0.00 0.00 68 1015.3
20260905191715 82 348 1.0 2.0 0.00 0.00 0.00 68 1015.3
20260905191213 82 333 2.0 3.0 0.00 0.00 0.00 68 1015.3
20260905190503 82 311 1.0 3.0 0.00 0.00 0.00 68 1015.3
20260905190003 83 346 1.0 3.0 0.00 0.00 0.00 68 1015.3
20260905185503 83 360 2.0 3.0 0.00 0.00 0.00 68 1015.3
20260905185003 83 345 2.0 5.0 0.00 0.00 0.00 68 1015.3
20260905184504 83 335 4.0 5.0 0.00 0.00 0.00 68 1015.3
20260905184004 84 327 5.0 6.0 0.00 0.00 0.00 68 1015.3
20260905183506 84 318 6.0 10.0 0.00 0.00 0.00 68 1015.3
20260905183004 84 325 7.0 10.0 0.00 0.00 0.00 68 1015.3
20260905182504 84 332 5.0 9.0 0.00 0.00 0.00 67 1015.3
20260905182004 84 319 6.0 10.0 0.00 0.00 0.00 66 1015.3
20260905181504 85 313 7.0 10.0 0.00 0.00 0.00 66 1014.3
20260905181213 85 313 6.0 10.0 0.00 0.00 0.00 66 1014.3
20260905180504 85 326 7.0 9.0 0.00 0.00 0.00 65 1014.3
20260905180004 85 331 7.0 11.0 0.00 0.00 0.00 65 1014.3
20260905175504 85 335 7.0 11.0 0.00 0.00 0.00 65 1014.3
20260905175004 86 328 7.0 11.0 0.00 0.00 0.00 64 1014.3
20260905174504 86 324 8.0 11.0 0.00 0.00 0.00 64 1014.3
20260905174216 86 326 8.0 11.0 0.00 0.00 0.00 64 1014.3
20260905173504 86 320 8.0 11.0 0.00 0.00 0.00 63 1014.3
20260905173004 87 315 8.0 11.0 0.00 0.00 0.00 63 1014.3
20260905172504 87 319 9.0 13.0 0.00 0.00 0.00 62 1014.3
20260905172004 87 319 9.0 13.0 0.00 0.00 0.00 62 1014.3
20260905171716 87 322 8.0 11.0 0.00 0.00 0.00 62 1014.3
20260905171005 87 329 9.0 12.0 0.00 0.00 0.00 61 1014.3
20260905170503 88 323 10.0 16.0 0.00 0.00 0.00 60 1014.3
20260905170215 88 316 11.0 16.0 0.00 0.00 0.00 59 1014.3
20260905165504 89 322 11.0 15.0 0.00 0.00 0.00 58 1014.3
20260905165003 89 321 12.0 15.0 0.00 0.00 0.00 58 1014.3
20260905164503 89 323 13.0 18.0 0.00 0.00 0.00 57 1014.3
20260905164003 89 320 12.0 18.0 0.00 0.00 0.00 56 1014.3
20260905163504 89 309 11.0 17.0 0.00 0.00 0.00 56 1014.3
20260905163004 90 310 12.0 16.0 0.00 0.00 0.00 55 1014.3
20260905162503 90 312 11.0 16.0 0.00 0.00 0.00 57 1014.3
20260905162004 90 300 12.0 17.0 0.00 0.00 0.00 57 1014.3
20260905161504 89 305 14.0 20.0 0.00 0.00 0.00 57 1014.3
20260905161003 90 305 14.0 20.0 0.00 0.00 0.00 57 1014.3
20260905160503 90 294 14.0 20.0 0.00 0.00 0.00 57 1014.3
20260905160003 90 298 15.0 21.0 0.00 0.00 0.00 57 1014.3
20260905155503 90 289 16.0 21.0 0.00 0.00 0.00 57 1014.3
20260905155003 90 290 15.0 19.0 0.00 0.00 0.00 57 1014.3
20260905154503 89 304 14.0 21.0 0.00 0.00 0.00 59 1014.3
20260905154003 90 300 15.0 21.0 0.00 0.00 0.00 59 1014.3
20260905153503 90 293 15.0 19.0 0.00 0.00 0.00 59 1014.3
20260905153213 89 292 15.0 19.0 0.00 0.00 0.00 59 1014.3
20260905152503 89 296 14.0 19.0 0.00 0.00 0.00 59 1014.3
20260905152003 90 301 15.0 24.0 0.00 0.00 0.00 60 1014.3
20260905151503 90 293 17.0 24.0 0.00 0.00 0.00 58 1014.3
20260905151215 90 294 19.0 24.0 0.00 0.00 0.00 57 1014.3
20260905150503 90 294 17.0 21.0 0.00 0.00 0.00 56 1014.3
20260905150003 91 285 16.0 20.0 0.00 0.00 0.00 56 1014.3
20260905145503 91 280 16.0 22.0 0.00 0.00 0.00 56 1014.3
20260905145003 91 278 15.0 22.0 0.00 0.00 0.00 55 1014.3
20260905144503 91 274 15.0 23.0 0.00 0.00 0.00 54 1014.3
20260905144004 91 276 18.0 23.0 0.00 0.00 0.00 56 1014.3
20260905143504 91 283 16.0 18.0 0.00 0.00 0.00 57 1014.3
20260905143004 90 281 16.0 21.0 0.00 0.00 0.00 57 1015.3
20260905142504 90 286 17.0 23.0 0.00 0.00 0.00 59 1015.3
20260905142004 90 299 16.0 23.0 0.00 0.00 0.00 59 1015.3
20260905141504 91 300 16.0 19.0 0.00 0.00 0.00 58 1015.3
20260905141005 91 289 17.0 20.0 0.00 0.00 0.00 60 1015.3
20260905140504 91 274 17.0 27.0 0.00 0.00 0.00 61 1015.3
20260905140004 90 272 18.0 27.0 0.00 0.00 0.00 61 1015.3
20260905135504 90 284 17.0 22.0 0.00 0.00 0.00 60 1015.3
20260905135218 90 294 17.0 21.0 0.00 0.00 0.00 60 1015.3
20260905134716 91 291 16.0 21.0 0.00 0.00 0.00 59 1015.3
20260905134004 91 292 14.0 22.0 0.00 0.00 0.00 59 1015.3
20260905133504 91 286 13.0 22.0 0.00 0.00 0.00 58 1015.3
20260905133004 91 282 14.0 17.0 0.00 0.00 0.00 58 1015.3
20260905132504 91 277 14.0 21.0 0.00 0.00 0.00 58 1015.3
20260905132216 91 276 15.0 21.0 0.00 0.00 0.00 57 1015.3
20260905131504 90 293 14.0 21.0 0.00 0.00 0.00 59 1015.3
20260905131004 91 292 14.0 20.0 0.00 0.00 0.00 56 1015.3
20260905130504 90 286 15.0 21.0 0.00 0.00 0.00 57 1015.3
20260905130004 91 286 14.0 21.0 0.00 0.00 0.00 54 1015.3
20260905125504 91 279 15.0 21.0 0.00 0.00 0.00 53 1015.3
20260905125004 91 282 15.0 21.0 0.00 0.00 0.00 51 1015.3
20260905124717 91 293 13.0 21.0 0.00 0.00 0.00 51 1015.3
20260905124004 91 288 12.0 21.0 0.00 0.00 0.00 51 1015.3
20260905123718 91 289 11.0 15.0 0.00 0.00 0.00 52 1015.3
20260905123004 91 291 11.0 15.0 0.00 0.00 0.00 50 1015.3
20260905122503 91 285 12.0 18.0 0.00 0.00 0.00 51 1015.3
20260905122216 91 295 13.0 18.0 0.00 0.00 0.00 51 1015.3
20260905121504 90 296 13.0 20.0 0.00 0.00 0.00 52 1015.3
20260905121004 90 276 12.0 20.0 0.00 0.00 0.00 52 1015.3
20260905120503 89 270 12.0 20.0 0.00 0.00 0.00 53 1015.3
20260905120003 89 267 12.0 17.0 0.00 0.00 0.00 54 1016.3
20260905115503 88 252 11.0 13.0 0.00 0.00 0.00 56 1016.3
20260905115003 88 211 11.0 17.0 0.00 0.00 0.00 62 1016.3
20260905114503 87 187 12.0 17.0 0.00 0.00 0.00 64 1016.3
20260905114003 87 180 13.0 17.0 0.00 0.00 0.00 65 1016.3
20260905113503 86 186 11.0 15.0 0.00 0.00 0.00 66 1016.3
20260905113003 86 187 11.0 15.0 0.00 0.00 0.00 66 1016.3
20260905112503 86 180 11.0 13.0 0.00 0.00 0.00 66 1016.3
20260905112003 86 180 10.0 13.0 0.00 0.00 0.00 66 1016.3
20260905111503 85 180 12.0 14.0 0.00 0.00 0.00 66 1016.3
20260905111004 85 186 11.0 14.0 0.00 0.00 0.00 65 1016.3
20260905110503 85 181 10.0 17.0 0.00 0.00 0.00 65 1016.3
20260905110003 85 174 11.0 17.0 0.00 0.00 0.00 65 1016.3
20260905105504 85 180 12.0 17.0 0.00 0.00 0.00 64 1016.3
20260905105004 85 180 12.0 14.0 0.00 0.00 0.00 63 1016.3
20260905104505 85 180 11.0 14.0 0.00 0.00 0.00 62 1016.3
20260905104004 85 180 10.0 15.0 0.00 0.00 0.00 62 1016.3
20260905103504 85 180 9.0 15.0 0.00 0.00 0.00 62 1016.3
20260905103004 84 184 8.0 11.0 0.00 0.00 0.00 62 1016.3
20260905102504 85 181 8.0 10.0 0.00 0.00 0.00 61 1016.3
20260905102218 84 181 9.0 15.0 0.00 0.00 0.00 61 1016.3
20260905101504 85 180 10.0 15.0 0.00 0.00 0.00 57 1016.3
20260905101004 85 180 8.0 11.0 0.00 0.00 0.00 56 1016.3
20260905100504 85 180 8.0 11.0 0.00 0.00 0.00 55 1016.3
20260905100004 85 183 8.0 11.0 0.00 0.00 0.00 55 1016.3
20260905095504 84 196 8.0 11.0 0.00 0.00 0.00 55 1016.3
20260905095004 84 218 7.0 14.0 0.00 0.00 0.00 55 1016.3
20260905094504 84 198 7.0 14.0 0.00 0.00 0.00 58 1016.3
20260905094004 83 180 8.0 11.0 0.00 0.00 0.00 58 1016.3
20260905093504 83 180 9.0 12.0 0.00 0.00 0.00 59 1016.3
20260905093004 83 180 9.0 12.0 0.00 0.00 0.00 57 1016.3
20260905092504 83 185 8.0 12.0 0.00 0.00 0.00 56 1016.3
20260905092003 84 187 7.0 11.0 0.00 0.00 0.00 56 1016.3
20260905091504 83 203 9.0 12.0 0.00 0.00 0.00 56 1016.3
20260905091214 83 207 9.0 12.0 0.00 0.00 0.00 56 1016.3
20260905090504 83 199 7.0 10.0 0.00 0.00 0.00 56 1016.3
20260905090004 84 195 7.0 10.0 0.00 0.00 0.00 56 1016.3
20260905085503 83 180 7.0 9.0 0.00 0.00 0.00 57 1016.3
20260905085004 83 182 7.0 10.0 0.00 0.00 0.00 57 1016.3
20260905084504 83 182 6.0 10.0 0.00 0.00 0.00 57 1016.3
20260905084004 83 186 6.0 9.0 0.00 0.00 0.00 57 1016.3
20260905083503 82 185 6.0 8.0 0.00 0.00 0.00 58 1016.3
20260905083004 82 178 6.0 8.0 0.00 0.00 0.00 59 1015.3
20260905082503 82 180 6.0 8.0 0.00 0.00 0.00 58 1015.3
20260905082003 81 201 7.0 11.0 0.00 0.00 0.00 59 1015.3
20260905081503 81 200 7.0 11.0 0.00 0.00 0.00 58 1015.3
20260905081003 82 180 6.0 9.0 0.00 0.00 0.00 58 1015.3
20260905080504 82 180 5.0 8.0 0.00 0.00 0.00 57 1015.3
20260905080003 83 178 4.0 8.0 0.00 0.00 0.00 56 1015.3
20260905075503 83 172 3.0 5.0 0.00 0.00 0.00 55 1015.3
20260905075217 84 168 2.0 4.0 0.00 0.00 0.00 55 1015.3
20260905074503 84 147 2.0 3.0 0.00 0.00 0.00 56 1015.3
20260905074006 84 134 2.0 4.0 0.00 0.00 0.00 56 1015.3
20260905073503 83 135 2.0 4.0 0.00 0.00 0.00 57 1015.3
20260905073004 83 124 2.0 5.0 0.00 0.00 0.00 57 1015.3
20260905072503 83 102 3.0 5.0 0.00 0.00 0.00 57 1015.3
20260905072005 83 98 3.0 5.0 0.00 0.00 0.00 56 1015.3
20260905071503 83 86 2.0 4.0 0.00 0.00 0.00 57 1015.3
20260905071003 82 88 3.0 5.0 0.00 0.00 0.00 57 1015.3
20260905070713 82 91 3.0 5.0 0.00 0.00 0.00 57 1015.3
20260905070004 82 83 3.0 4.0 0.00 0.00 0.00 57 1015.3
20260905065504 81 90 3.0 4.0 0.00 0.00 0.00 57 1015.3
20260905065004 81 77 3.0 8.0 0.00 0.00 0.00 57 1015.3
20260905064504 81 56 4.0 8.0 0.00 0.00 0.00 58 1015.3
20260905064004 80 51 4.0 6.0 0.00 0.00 0.00 59 1015.3
20260905063716 79 50 4.0 6.0 0.00 0.00 0.00 60 1015.3
20260905063004 78 49 3.0 5.0 0.00 0.00 0.00 63 1015.3
20260905062504 78 59 3.0 5.0 0.00 0.00 0.00 66 1015.3
20260905062004 77 47 3.0 5.0 0.00 0.00 0.00 67 1015.3
20260905061718 76 47 4.0 5.0 0.00 0.00 0.00 68 1015.3
20260905061004 76 45 2.0 4.0 0.00 0.00 0.00 70 1015.3
20260905060504 76 45 1.0 3.0 0.00 0.00 0.00 72 1015.3
20260905060004 75 34 1.0 2.0 0.00 0.00 0.00 73 1015.3
20260905055504 74 34 1.0 3.0 0.00 0.00 0.00 73 1015.3
20260905055218 74 36 1.0 3.0 0.00 0.00 0.00 74 1015.3
20260905054504 74 45 1.0 3.0 0.00 0.00 0.00 74 1015.3
20260905054004 73 37 2.0 3.0 0.00 0.00 0.00 74 1015.3
20260905053504 72 34 2.0 3.0 0.00 0.00 0.00 74 1015.3
20260905053215 72 26 2.0 4.0 0.00 0.00 0.00 74 1015.3
20260905052713 72 31 2.0 4.0 0.00 0.00 0.00 75 1015.3
20260905052216 71 41 3.0 4.0 0.00 0.00 0.00 75 1015.3
20260905051504 71 45 3.0 4.0 0.00 0.00 0.00 76 1015.3
20260905051004 71 33 3.0 4.0 0.00 0.00 0.00 76 1015.3
20260905050715 71 24 2.0 4.0 0.00 0.00 0.00 76 1015.3
20260905050218 71 5 3.0 5.0 0.00 0.00 0.00 76 1015.3
20260905045716 70 9 3.0 5.0 0.00 0.00 0.00 76 1014.3
20260905045003 70 28 2.0 4.0 0.00 0.00 0.00 76 1014.3
20260905044504 70 25 3.0 4.0 0.00 0.00 0.00 76 1014.3
20260905044003 70 20 2.0 4.0 0.00 0.00 0.00 76 1014.3
20260905043503 71 15 1.0 4.0 0.00 0.00 0.00 76 1014.3
20260905043005 71 30 1.0 2.0 0.00 0.00 0.00 76 1014.3
20260905042503 71 42 2.0 3.0 0.00 0.00 0.00 77 1014.3
20260905042216 71 43 2.0 3.0 0.00 0.00 0.00 77 1014.3
20260905041503 71 42 1.0 3.0 0.00 0.00 0.00 77 1014.3
20260905041003 71 20 2.0 4.0 0.00 0.00 0.00 77 1014.3
20260905040503 71 10 2.0 4.0 0.00 0.00 0.00 77 1014.3
20260905040003 71 9 2.0 4.0 0.00 0.00 0.00 78 1014.3
20260905035503 71 29 2.0 3.0 0.00 0.00 0.00 78 1014.3
20260905035214 71 33 1.0 3.0 0.00 0.00 0.00 78 1014.3
20260905034717 71 20 0.0 2.0 0.00 0.00 0.00 78 1014.3
20260905034003 71 339 0.0 2.0 0.00 0.00 0.00 78 1014.3
20260905033505 71 341 1.0 3.0 0.00 0.00 0.00 78 1014.3
20260905033216 71 2 2.0 4.0 0.00 0.00 0.00 78 1014.3
20260905032503 71 20 3.0 5.0 0.00 0.00 0.00 79 1014.3
20260905032217 71 9 3.0 5.0 0.00 0.00 0.00 79 1014.3
20260905031504 70 2 3.0 5.0 0.00 0.00 0.00 80 1014.3
20260905031218 70 360 3.0 4.0 0.00 0.00 0.00 80 1014.3
20260905030504 70 12 2.0 3.0 0.00 0.00 0.00 80 1014.3
20260905030004 70 33 1.0 2.0 0.00 0.00 0.00 80 1014.3
20260905025504 70 25 1.0 3.0 0.00 0.00 0.00 80 1014.3
20260905025004 70 9 2.0 3.0 0.00 0.00 0.00 80 1014.3
20260905024718 70 6 2.0 3.0 0.00 0.00 0.00 80 1014.3
20260905024004 70 360 2.0 2.0 0.00 0.00 0.00 80 1014.3
20260905023504 70 360 2.0 2.0 0.00 0.00 0.00 81 1014.3
20260905023004 70 357 1.0 2.0 0.00 0.00 0.00 81 1014.3
20260905022504 70 349 1.0 2.0 0.00 0.00 0.00 81 1014.3
20260905022004 70 326 1.0 2.0 0.00 0.00 0.00 81 1014.3
20260905021504 71 334 1.0 4.0 0.00 0.00 0.00 82 1014.3
20260905021213 71 331 2.0 5.0 0.00 0.00 0.00 82 1014.3
20260905020504 71 327 2.0 5.0 0.00 0.00 0.00 82 1014.3
20260905020214 70 326 1.0 5.0 0.00 0.00 0.00 82 1014.3
20260905015717 70 350 1.0 3.0 0.00 0.00 0.00 82 1014.3
20260905015004 70 360 2.0 4.0 0.00 0.00 0.00 82 1014.3
20260905014504 70 360 3.0 4.0 0.00 0.00 0.00 82 1014.3
20260905014004 71 360 2.0 3.0 0.00 0.00 0.00 82 1014.3
20260905013504 71 360 1.0 3.0 0.00 0.00 0.00 82 1014.3
20260905013004 71 360 1.0 3.0 0.00 0.00 0.00 82 1014.3
20260905012504 71 360 2.0 4.0 0.00 0.00 0.00 83 1014.3
20260905012004 71 360 2.0 4.0 0.00 0.00 0.00 83 1014.3
20260905011504 72 357 1.0 3.0 0.00 0.00 0.00 83 1014.3
20260905011004 72 347 1.0 2.0 0.00 0.00 0.00 84 1014.3
20260905010504 72 339 2.0 3.0 0.00 0.00 0.00 84 1014.3
20260905010215 72 339 2.0 3.0 0.00 0.00 0.00 84 1014.3
20260905005503 72 1 1.0 3.0 0.00 0.00 0.00 84 1014.3
20260905005003 73 1 2.0 3.0 0.00 0.00 0.00 84 1014.3
20260905004504 73 360 1.0 3.0 0.00 0.00 0.00 84 1014.3
20260905004005 73 12 1.0 2.0 0.00 0.00 0.00 84 1014.3
20260905003503 73 21 1.0 3.0 0.00 0.00 0.00 83 1014.3
20260905003003 73 25 2.0 3.0 0.00 0.00 0.00 83 1014.3
20260905002503 74 17 2.0 3.0 0.00 0.00 0.00 83 1014.3
20260905002214 74 10 1.0 2.0 0.00 0.00 0.00 82 1014.3
20260905001503 74 343 1.0 2.0 0.00 0.00 0.00 82 1014.3
20260905001003 74 17 2.0 5.0 0.00 0.00 0.00 83 1014.3
20260905000503 75 31 3.0 5.0 0.00 0.00 0.00 83 1014.3
20260905000003 75 31 2.0 5.0 0.00 0.00 0.00 83 1014.3
20260904235713 75 39 2.0 3.0 0.00 0.00 0.00 83 1014.3
20260904235005 75 34 2.0 4.0 0.00 0.00 0.00 83 1014.3
20260904234503 76 46 3.0 7.0 0.00 0.00 0.00 83 1014.3
20260904234004 76 47 3.0 7.0 0.00 0.00 0.00 82 1014.3
20260904233504 76 45 2.0 3.0 0.00 0.00 0.00 82 1014.3
20260904233219 75 45 2.0 3.0 0.00 0.00 0.00 81 1014.3
20260904232504 75 26 1.0 2.0 0.00 0.00 0.00 79 1015.3
20260904232215 75 346 1.0 2.0 0.00 0.00 0.00 79 1015.3
20260904231505 76 6 1.0 2.0 0.00 0.00 0.00 78 1015.3
20260904231215 76 40 1.0 3.0 0.00 0.00 0.00 78 1015.3
20260904230504 76 47 2.0 3.0 0.00 0.00 0.00 79 1015.3
20260904230004 76 52 1.0 3.0 0.00 0.00 0.00 78 1015.3
20260904225504 75 36 0.0 2.0 0.00 0.00 0.00 77 1015.3
20260904225004 75 21 0.0 2.0 0.00 0.00 0.00 77 1015.3
20260904224504 75 24 1.0 3.0 0.00 0.00 0.00 76 1015.3
20260904224004 76 19 1.0 3.0 0.00 0.00 0.00 76 1015.3
20260904223504 76 7 1.0 2.0 0.00 0.00 0.00 76 1015.3
20260904223214 76 2 1.0 2.0 0.00 0.00 0.00 75 1015.3
20260904222504 77 44 1.0 2.0 0.00 0.00 0.00 74 1015.3
20260904222004 79 68 2.0 6.0 0.00 0.00 0.00 75 1015.3
20260904221504 78 55 2.0 6.0 0.00 0.00 0.00 75 1015.3
20260904221004 78 45 2.0 5.0 0.00 0.00 0.00 74 1015.3
20260904220504 79 43 2.0 5.0 0.00 0.00 0.00 75 1015.3
20260904220217 78 45 1.0 5.0 0.00 0.00 0.00 73 1015.3
20260904215504 79 45 1.0 4.0 0.00 0.00 0.00 73 1015.3
20260904215213 79 52 2.0 5.0 0.00 0.00 0.00 73 1015.3
20260904214716 80 59 4.0 5.0 0.00 0.00 0.00 74 1015.3
20260904214214 80 65 4.0 5.0 0.00 0.00 0.00 73 1015.3
20260904213503 79 46 3.0 5.0 0.00 0.00 0.00 71 1015.3
20260904213004 79 47 4.0 5.0 0.00 0.00 0.00 70 1015.3
20260904212505 80 51 4.0 5.0 0.00 0.00 0.00 70 1015.3
20260904212004 80 50 4.0 6.0 0.00 0.00 0.00 70 1015.3
20260904211503 80 44 4.0 6.0 0.00 0.00 0.00 70 1015.3
20260904211003 80 42 5.0 7.0 0.00 0.00 0.00 71 1015.3
20260904210503 80 41 6.0 8.0 0.00 0.00 0.00 71 1015.3
20260904210004 81 44 5.0 8.0 0.00 0.00 0.00 70 1015.3
20260904205715 81 43 5.0 8.0 0.00 0.00 0.00 71 1015.3
20260904205004 80 58 4.0 6.0 0.00 0.00 0.00 72 1015.3
20260904204503 80 58 4.0 6.0 0.00 0.00 0.00 73 1015.3
20260904204003 80 54 4.0 5.0 0.00 0.00 0.00 73 1015.3
20260904203503 80 41 3.0 4.0 0.00 0.00 0.00 73 1015.3
20260904203003 80 353 2.0 5.0 0.00 0.00 0.00 72 1014.3
20260904202503 80 335 3.0 6.0 0.00 0.00 0.00 71 1014.3
20260904202003 80 329 2.0 6.0 0.00 0.00 0.00 71 1014.3
20260904201714 80 328 2.0 6.0 0.00 0.00 0.00 71 1014.3
20260904201217 80 319 1.0 3.0 0.00 0.00 0.00 70 1014.3
20260904200503 80 322 1.0 2.0 0.00 0.00 0.00 70 1014.3
20260904200003 81 341 1.0 3.0 0.00 0.00 0.00 69 1014.3
20260904195503 81 356 1.0 3.0 0.00 0.00 0.00 69 1014.3